Weather in Bokhtariyon

Tajikistan     37°52′52″N   68°43′50″E
В апреле 2022 года жителям России запретили посещать сайт meteo.paraplan.net по решению Генеральной прокуратуры. Аудитория сайта уменьшилась в 10 раз. Владельцы сайта не видят смысла в поддержке погодного сервера в таких условиях. Сайт будет закрыт в октябре.
temp.,
°C
wind,
m/s
gust,
m/s
humid.,
%
clouds,
%
prec.,
mm/h
press.,
hPa
HPBL,
m
30 september, fri
fri3023:00+21n22220 0.0 101013
02:00+20n22240 0.0 101016
05:00+19n22263 0.0 101114
08:00+23nne122097 0.0 1012114
11:00+29s221416 0.0 1012984
14:00+32s441479 0.0 10092152
17:00+30s461491 0.0 1009430
20:00+25wsw012097 0.0 101112
1 october, sat
sat123:00+22nne222553 0.0 101211
02:00+21nne1126100 0.0 101211
05:00+20sw112693 0.0 101211
08:00+22ssw0123100 0.0 1014129
11:00+26s231480 0.0 10141223
14:00+29s32121 0.0 10121918
17:00+28sse43130 0.0 10111130
20:00+21nne12220 0.0 101312
2 october, sun
sun223:00+19n11250 0.0 101411
02:00+17n11270 0.0 101411
05:00+16nnw11290 0.0 101511
08:00+19nne11240 0.0 1016141
11:00+24s22170 0.0 10151037
14:00+28sse33140 0.0 10111893
17:00+27sse44150 0.0 10101029
20:00+19sse01240 0.0 101217
3 october, mon
mon323:00+17nnw122627 0.0 101411
02:00+16nnw112798 0.0 101411
05:00+15n112781 0.0 101411
08:00+18ne00237 0.0 1016139
11:00+23s22173 0.0 10151052
14:00+26sse33140 0.0 10131674
17:00+25sse44140 0.0 10121094
20:00+18w11220 0.0 101511
4 october, tue
tue423:00+16n22255 0.0 101716
02:00+15n22275 0.0 101717
05:00+14n22290 0.0 101713
08:00+18nne22230 0.0 1018124
11:00+24sse21150 0.0 1018891
14:00+28sse23120 0.0 10151884
17:00+27sse34120 0.0 1015296
20:00+20nnw11182 0.0 101811